Flag for Moldova Weather past 2 weeks in Tiraspol, Moldova

Now
37 °F

Fog.


Feels Like: 31 °F
Forecast: 28 / 44 °F
Wind: 9 mph from North

Location: Chisinau International Airport

Current Time: Dec 18, 2014 at 2:56:25 AM

Latest Report: Dec 18, 2014 at 2:30 AM


Visibility: 3 mi

Pressure: 29.92 "Hg

Humidity: 87%

Dew point: 34 °F

Location of TiraspolLocation

Historic Weather in Tiraspol — Graph

°F

Tiraspol temperature yesterday

Maximum temperature yesterday: 48 °F (at 3:00 PM)
Minimum temperature yesterday: 37 °F (at 9:00 PM)
Average temperature yesterday: 43 °F

Past Weeks' High & Low Weather Summary

 TemperatureHumidityPressure
High50 °F (Dec 13, 2:00 PM)93% (Dec 5, 6:00 PM)30.54 "Hg (Dec 5, 6:00 PM)
Low19 °F (Dec 3, 8:00 AM)50% (Dec 13, 2:00 PM)29.80 "Hg (Dec 17, 1:30 PM)
Average32 °F83%30.17 "Hg
* Reported Dec 3 2:00 AM — Dec 18 2:00 AM, Tiraspol, Weather by CustomWeather, © 2014

Note: Actual official high and low records may vary slightly from our data, if they occured in-between our weather recording intervals... More about our weather records

Advertising

Tiraspol weather history for previous 24 hours

 ConditionsComfort  
Time TempWeatherWind HumidityBarometerVisibility
2:00 AM
Dec 18
37 °FFog.7 mph87%29.92 "Hg3 mi
1:30 AM37 °FFog.6 mph87%29.92 "Hg2 mi
1:00 AM37 °FFog.7 mph87%29.92 "Hg2 mi
12:30 AM37 °FFog.7 mph87%29.92 "Hg2 mi
12:00 AM37 °FFog.7 mph87%29.92 "Hg1 mi
11:30 PM
Dec 17
37 °FFog.8 mph87%29.92 "Hg1 mi
11:00 PM39 °FFog.7 mph87%29.89 "Hg1 mi
10:30 PM39 °FFog.12 mph87%29.89 "Hg2 mi
10:00 PM39 °FFog.10 mph87%29.89 "Hg2 mi
9:30 PM39 °FFog.12 mph81%29.89 "Hg2 mi
9:00 PM37 °FFog.5 mph81%29.86 "Hg2 mi
8:30 PM39 °FClear.8 mph81%29.86 "Hg3 mi
8:00 PM41 °FClear.7 mph76%29.86 "Hg4 mi
7:30 PM41 °FClear.6 mph76%29.83 "Hg4 mi
7:00 PM41 °FClear.6 mph70%29.83 "Hg4 mi
6:30 PM41 °FClear.3 mph76%29.83 "Hg4 mi
6:00 PM43 °FClear.5 mph71%29.83 "Hg4 mi
5:30 PM45 °FClear.5 mph71%29.80 "Hg5 mi
5:00 PM45 °FClear.7 mph71%29.80 "Hg4 mi
4:30 PM45 °FClear.2 mph71%29.80 "Hg4 mi
4:00 PM45 °FSunny.6 mph71%29.80 "Hg10 mi
3:30 PM46 °FSunny.6 mph71%29.80 "Hg10 mi
3:00 PM48 °FPassing clouds.8 mph62%29.80 "HgN/A
2:30 PM46 °FPassing clouds.3 mph71%29.80 "HgN/A
2:00 PM46 °FPassing clouds.5 mph66%29.80 "HgN/A
1:30 PM46 °FPassing clouds.6 mph71%29.80 "HgN/A
1:00 PM45 °FSunny.8 mph76%29.83 "Hg10 mi
12:30 PM45 °FPassing clouds.10 mph71%29.83 "Hg5 mi
12:00 PM43 °FScattered clouds.6 mph81%29.86 "Hg5 mi
11:30 AM43 °FBroken clouds.10 mph81%29.86 "Hg4 mi
11:00 AM43 °FFog.9 mph81%29.89 "Hg3 mi
10:30 AM43 °FFog.10 mph81%29.89 "Hg3 mi
10:00 AM43 °FFog.9 mph81%29.92 "Hg3 mi
9:30 AM43 °FFog.9 mph81%29.89 "Hg3 mi
9:00 AM43 °FFog.7 mph81%29.89 "Hg2 mi
8:30 AM41 °FFog.6 mph87%29.89 "Hg3 mi
8:00 AM41 °FFog.3 mph87%29.89 "Hg3 mi
7:30 AM41 °FFog.5 mph87%29.92 "Hg3 mi
7:00 AM43 °FFog.5 mph81%29.92 "Hg3 mi
6:30 AM43 °FFog.8 mph87%29.92 "Hg3 mi
6:00 AM43 °FFog.8 mph81%29.92 "Hg2 mi
5:30 AM43 °FFog.10 mph81%29.92 "Hg3 mi
5:00 AM43 °FFog.12 mph81%29.95 "Hg3 mi
4:30 AM43 °FFog.12 mph81%29.95 "Hg3 mi
4:00 AM43 °FFog.12 mph81%29.95 "Hg3 mi
3:30 AM43 °FFog.9 mph81%29.98 "Hg3 mi
3:00 AM43 °FLow clouds.9 mph81%29.98 "Hg4 mi
2:30 AM43 °FMostly cloudy.12 mph81%29.98 "Hg5 mi
2:00 AM43 °FMostly cloudy.13 mph81%29.98 "Hg5 mi
Weather by CustomWeather, © 2014

See weather overviewHow to use our weather pages